Temp
60 65 69 71 72 73 64 67 55 63 65 65 65 68 69 73 71 71 70 73 74 75 74 75 76 73 73 72 73 73 71 71 71 71 70 70 70 70 70 69 69 68 67 66
57 68 69 69 76 73 72 70 68 64 65 71 70 68 70 72 71 72 74 75 75 78 77 75 75 72 73 72 70 70 68 70 70 70 69 69 69 69 68 68 67 66 64 61
53 61 62 58 69 73 71 70 68 62 70 71 70 70 70 71 74 76 79 77 77 73 75 77 72 73 71 70 70 70 70 70 70 68 68 69 68 68 67 65 64 63 60 57
51 51 46 65 71 79 74 74 76 73 71 73 69 69 71 74 75 77 76 77 77 75 78 72 72 71 72 71 69 69 68 67 68 68 67 67 67 66 66 64 63 60 57 56
51 48 57 67 73 75 67 65 75 75 73 71 73 74 69 74 76 77 76 76 76 79 76 71 71 71 69 69 68 68 66 66 66 66 66 65 63 62 62 63 62 60 57 55
50 48 50 63 74 75 74 62 68 74 71 72 70 63 62 69 75 74 74 72 71 73 73 71 67 67 66 67 67 66 65 66 67 65 64 62 61 61 61 61 61 60 56 53
51 52 57 65 69 73 64 60 65 72 72 74 73 68 65 70 70 72 71 70 70 69 67 65 66 67 66 65 64 64 66 64 63 63 62 61 59 59 58 57 58 55 55 53
50 49 52 66 67 69 65 64 70 69 68 68 67 69 69 68 68 69 68 68 69 67 66 65 66 66 63 63 65 66 63 63 61 61 64 62 58 55 55 54 53 51 51 51
52 52 60 63 62 66 68 66 68 66 68 66 71 70 69 66 66 67 67 66 67 66 64 64 65 66 64 63 64 62 61 59 59 60 61 60 57 54 54 53 52 51 50 47
54 59 60 65 67 67 69 69 71 70 70 69 70 71 69 66 66 66 66 65 65 65 63 62 62 63 64 63 62 61 59 59 59 58 57 56 56 55 53 51 50 50 49 47
57 60 61 65 67 70 73 73 75 75 77 74 73 70 67 65 65 66 65 65 64 62 61 60 60 60 61 61 61 59 58 58 57 56 56 54 54 53 54 52 53 51 49 49
55 61 56 63 70 71 72 74 73 77 77 77 76 71 70 67 66 66 64 63 62 60 59 58 59 59 59 60 60 58 57 56 56 55 54 54 54 53 52 53 52 51 49 50
61 67 63 66 67 71 72 74 75 73 77 74 75 75 72 66 64 63 64 63 62 60 59 59 58 58 59 59 59 58 57 55 56 56 55 54 53 52 52 52 51 49 48 48
70 69 66 69 70 73 74 79 75 80 79 77 77 75 71 68 66 65 63 63 62 61 59 59 59 58 59 59 58 56 55 56 56 55 55 55 54 53 52 51 50 51 50 48
69 73 67 68 73 75 78 78 76 70 71 72 75 71 70 66 64 63 64 65 64 62 61 60 59 58 59 59 58 57 56 55 55 54 54 55 54 53 53 52 51 52 51 49
70 69 69 71 68 68 71 71 68 66 67 65 66 67 68 69 66 63 63 63 60 58 58 59 59 59 60 59 57 56 56 58 57 56 56 55 55 55 53 53 52 52 51 51
64 64 66 67 66 66 67 70 66 62 65 64 63 65 64 64 62 62 61 61 60 60 59 59 58 58 58 57 61 61 59 61 61 57 59 60 59 59 58 55 54 53 54 55
72 71 67 67 62 63 64 64 63 62 62 64 64 64 63 62 61 60 58 58 59 57 58 58 58 58 60 59 61 63 63 61 61 61 62 60 58 56 55 55 55 55 56 57
69 70 70 72 69 64 61 61 62 61 61 62 63 62 62 60 59 58 59 58 57 55 54 57 62 59 59 63 61 61 60 59 61 59 60 59 57 57 55 55 56 56 57 56
70 72 69 67 67 63 61 64 63 62 63 64 62 59 58 58 59 58 59 57 57 57 55 58 61 58 56 60 61 56 55 56 57 60 56 56 57 60 58 55 57 58 57 57
68 69 68 67 65 65 65 65 63 62 61 62 59 58 58 57 58 58 54 54 52 56 55 58 54 52 53 54 54 52 53 57 59 57 57 55 59 62 58 58 58 60 57 56
65 64 63 63 62 61 61 61 61 60 59 59 59 58 56 53 53 52 53 54 50 55 53 52 52 56 54 59 52 53 54 57 56 57 60 61 57 58 56 58 56 57 57 55
62 62 62 62 61 60 60 59 59 59 57 57 56 55 55 53 53 53 51 52 53 54 53 52 54 57 58 55 53 55 56 57 56 55 55 56 57 56 56 55 55 55 55 53
61 62 62 62 62 61 58 57 58 57 57 56 56 55 55 52 52 53 55 55 55 54 53 53 55 57 57 54 54 54 55 55 55 55 58 56 55 56 58 54 54 56 54 52
61 60 59 60 58 57 56 56 56 55 55 54 54 55 55 54 56 56 55 55 55 54 54 55 57 57 54 53 54 54 54 54 55 55 59 57 55 56 55 54 53 53 52 51
59 59 58 59 59 58 56 56 54 53 53 53 53 55 56 56 56 56 56 55 56 55 54 53 54 54 54 54 55 55 55 56 55 57 60 57 59 59 56 55 53 52 50 49
58 57 57 57 56 57 57 56 55 54 55 55 55 56 57 57 57 56 56 56 56 56 55 55 55 54 53 54 54 55 55 55 54 61 59 60 57 54 55 55 52 49 49 48
MSLP
1003.19 1002.63 1001.92 1001.19 1000.92 1001.19 1002.47 1002.89 1003.76 1003.40 1003.65 1003.54 1004.39 1004.95 1006.01 1005.38 1005.78 1006.88 1006.85 1007.13 1008.04 1007.73 1007.86 1008.68 1009.09 1009.71 1009.99 1010.42 1011.32 1012.12 1012.65 1012.64 1013.08 1013.36 1013.75 1014.09 1014.38 1014.36 1014.45 1014.58 1014.72 1014.80 1014.80 1014.97
1003.19 1002.46 1001.93 1001.59 1000.96 1000.72 1000.86 1001.35 1002.52 1002.91 1003.16 1002.81 1003.91 1005.31 1005.67 1005.79 1005.82 1005.88 1005.86 1006.27 1007.06 1006.55 1006.23 1007.83 1008.88 1009.45 1009.63 1009.91 1010.70 1011.60 1012.89 1013.18 1013.25 1013.49 1013.65 1013.89 1014.32 1014.58 1014.66 1014.88 1015.17 1015.26 1015.51 1015.90
1004.27 1003.28 1002.43 1001.97 1000.90 1000.42 1000.31 1000.75 1001.00 1002.15 1001.67 1002.19 1002.75 1003.98 1005.18 1005.29 1005.62 1005.02 1004.73 1005.06 1005.89 1006.58 1006.60 1007.66 1008.70 1009.09 1009.97 1010.47 1011.08 1011.83 1012.52 1013.29 1013.58 1013.59 1013.65 1013.89 1014.15 1014.57 1015.03 1015.41 1015.31 1015.69 1016.23 1016.61
1005.27 1004.13 1002.95 1001.39 1000.56 1000.22 1000.23 1000.53 1000.41 1001.20 1000.86 1001.35 1002.32 1003.97 1004.24 1003.97 1004.10 1004.93 1004.72 1005.08 1005.69 1006.79 1007.25 1008.47 1009.13 1009.76 1010.39 1010.79 1012.80 1012.97 1012.81 1013.54 1013.82 1013.75 1013.92 1014.25 1014.52 1014.71 1014.86 1014.93 1015.55 1016.28 1016.75 1017.14
1006.12 1005.07 1003.36 1001.31 1000.14 1000.19 1000.24 1000.90 1000.98 1000.86 1002.60 1002.44 1002.41 1002.96 1003.82 1003.80 1003.81 1004.16 1004.58 1005.36 1006.21 1006.59 1007.56 1008.27 1009.16 1009.95 1010.89 1011.16 1012.37 1012.77 1013.76 1013.61 1013.88 1014.05 1014.40 1014.85 1015.14 1015.21 1014.92 1015.12 1015.88 1016.64 1017.45 1017.27
1006.54 1005.86 1003.83 1001.84 1000.60 1000.34 1000.36 1002.32 1002.66 1001.78 1002.61 1002.74 1002.64 1003.64 1004.29 1004.24 1003.62 1004.07 1004.54 1005.55 1006.06 1006.62 1007.57 1008.86 1010.30 1010.47 1011.26 1012.37 1012.76 1013.17 1013.56 1014.01 1014.02 1014.08 1014.59 1015.05 1015.48 1015.04 1015.41 1015.93 1016.48 1017.27 1017.53 1017.70
1006.70 1005.74 1003.73 1002.56 1001.82 1001.26 1002.08 1004.99 1003.89 1003.04 1003.89 1002.84 1002.81 1003.82 1004.86 1004.43 1004.97 1005.23 1005.39 1006.23 1007.18 1007.65 1008.37 1009.53 1010.46 1010.28 1011.19 1012.21 1012.98 1013.20 1013.57 1013.96 1014.13 1014.47 1014.80 1015.08 1015.35 1015.67 1016.18 1016.68 1016.94 1017.72 1017.69 1017.87
1007.72 1006.39 1005.14 1003.71 1003.22 1002.81 1003.65 1004.56 1004.01 1004.11 1005.40 1005.93 1005.38 1004.44 1004.54 1005.44 1006.50 1006.47 1007.22 1007.49 1008.02 1008.48 1009.31 1010.14 1010.57 1011.02 1011.78 1012.66 1013.23 1013.61 1013.97 1014.07 1014.50 1014.69 1015.04 1015.59 1015.79 1016.33 1016.68 1017.05 1017.56 1018.03 1018.12 1018.41
1008.62 1007.57 1005.93 1004.95 1004.09 1004.12 1003.08 1003.83 1002.41 1003.03 1004.68 1007.12 1008.14 1005.51 1005.87 1007.12 1007.28 1007.62 1008.06 1008.63 1009.31 1009.20 1010.19 1011.06 1011.34 1011.42 1011.92 1012.61 1013.00 1013.53 1014.17 1014.67 1014.98 1015.13 1015.37 1015.69 1016.21 1016.84 1017.24 1017.52 1017.92 1018.33 1018.55 1018.65
1008.62 1007.14 1006.24 1005.20 1004.75 1004.46 1004.21 1003.63 1003.73 1004.53 1005.79 1007.39 1006.60 1006.64 1007.33 1008.50 1008.91 1008.77 1009.02 1009.38 1009.88 1010.31 1011.34 1012.17 1012.40 1012.51 1012.49 1012.87 1013.15 1013.84 1014.46 1014.94 1015.24 1015.51 1015.86 1015.99 1016.46 1016.87 1017.40 1017.86 1018.21 1018.44 1018.56 1018.55
1007.99 1006.73 1006.04 1005.02 1004.52 1004.64 1005.24 1005.41 1004.24 1004.40 1004.33 1003.62 1004.44 1006.24 1007.79 1009.11 1009.33 1008.86 1009.35 1009.93 1010.24 1010.79 1011.98 1012.94 1012.99 1013.36 1013.52 1013.45 1013.71 1014.15 1014.65 1015.14 1015.60 1015.91 1016.20 1016.57 1016.85 1017.09 1017.26 1017.41 1017.33 1017.61 1018.03 1018.17
1006.98 1006.17 1006.11 1004.39 1003.07 1003.71 1004.06 1003.87 1003.45 1002.98 1003.33 1003.69 1004.42 1006.00 1007.27 1008.41 1008.99 1009.01 1009.54 1010.06 1010.46 1011.12 1012.40 1013.36 1013.44 1013.39 1013.47 1013.85 1013.99 1014.47 1015.08 1015.35 1015.60 1015.96 1016.34 1016.61 1016.86 1017.34 1017.26 1017.07 1017.10 1017.13 1017.22 1017.34
1005.29 1004.06 1003.58 1003.20 1003.41 1003.10 1002.83 1002.55 1003.06 1002.93 1003.11 1003.89 1004.34 1005.06 1006.58 1007.59 1008.22 1008.84 1009.64 1010.48 1010.82 1011.80 1012.81 1013.44 1013.98 1013.99 1014.14 1014.22 1014.48 1014.90 1015.30 1015.54 1015.67 1015.93 1016.20 1016.46 1016.79 1017.04 1017.42 1017.36 1017.19 1017.10 1016.99 1016.96
1004.29 1003.85 1002.98 1002.28 1002.88 1002.44 1002.43 1001.62 1001.35 1001.79 1002.35 1003.67 1004.31 1005.67 1006.42 1007.33 1008.67 1009.52 1010.06 1010.14 1010.68 1012.05 1012.92 1013.38 1013.91 1014.34 1014.50 1014.61 1014.81 1015.16 1015.39 1015.50 1015.46 1015.44 1015.64 1016.05 1016.33 1016.53 1016.64 1017.02 1017.21 1016.81 1016.40 1016.49
1004.12 1003.40 1002.98 1002.72 1002.80 1002.06 1000.56 1000.62 1001.81 1002.82 1004.06 1004.28 1004.33 1005.41 1006.63 1007.73 1008.86 1009.42 1009.88 1010.26 1011.13 1011.96 1012.77 1012.98 1013.60 1014.18 1014.17 1014.29 1014.57 1015.06 1015.33 1015.44 1015.47 1015.73 1015.98 1015.68 1015.98 1016.25 1016.17 1016.34 1016.52 1016.44 1016.23 1016.01
1003.35 1003.88 1003.43 1003.75 1003.95 1002.95 1002.05 1002.29 1002.80 1004.55 1005.37 1006.27 1006.80 1007.57 1006.70 1007.54 1008.58 1009.43 1009.73 1010.24 1011.23 1012.55 1013.15 1013.04 1013.41 1013.81 1013.85 1014.00 1014.46 1014.78 1015.11 1015.29 1015.65 1015.28 1015.41 1015.53 1015.73 1015.97 1016.08 1015.95 1015.93 1015.97 1015.83 1015.59
1003.83 1003.97 1003.95 1003.51 1003.51 1003.24 1003.43 1003.13 1003.86 1004.82 1005.49 1006.43 1006.72 1008.51 1007.04 1010.78 1009.63 1010.44 1011.05 1010.62 1011.49 1012.33 1012.91 1013.00 1013.62 1013.85 1013.98 1014.25 1014.36 1014.73 1015.02 1015.23 1015.12 1015.49 1015.46 1015.25 1015.19 1015.54 1015.58 1015.56 1015.47 1015.45 1015.13 1014.43
1002.50 1002.59 1003.06 1002.61 1003.55 1003.81 1004.03 1004.16 1004.56 1005.00 1005.75 1006.49 1006.58 1005.84 1009.88 1011.56 1010.60 1010.98 1011.18 1011.27 1012.24 1012.73 1012.95 1013.26 1013.57 1013.81 1014.12 1014.47 1014.39 1014.89 1015.13 1015.53 1015.89 1015.62 1015.48 1015.29 1015.00 1015.04 1015.16 1015.04 1015.02 1014.97 1014.38 1013.84
1002.31 1002.22 1002.23 1001.94 1002.77 1003.76 1005.30 1005.94 1004.93 1005.60 1006.68 1006.94 1007.01 1008.03 1009.39 1010.89 1010.97 1011.00 1011.30 1011.82 1012.78 1013.13 1013.58 1013.42 1013.61 1013.84 1014.07 1014.21 1014.62 1014.88 1015.01 1015.79 1016.05 1015.64 1015.26 1014.73 1014.73 1014.69 1014.64 1014.61 1014.46 1014.12 1013.62 1013.49
1002.27 1002.17 1002.43 1002.78 1003.51 1004.25 1005.30 1006.02 1004.18 1005.07 1007.08 1007.04 1007.68 1008.98 1010.38 1011.01 1011.00 1011.38 1011.70 1012.58 1012.85 1012.69 1013.03 1013.17 1013.38 1013.96 1014.11 1014.39 1014.52 1014.65 1015.43 1016.11 1015.89 1015.24 1014.38 1014.01 1014.02 1014.13 1014.05 1013.99 1013.75 1013.32 1013.29 1013.20
1002.90 1002.87 1003.21 1003.82 1004.70 1005.58 1005.72 1005.61 1006.07 1007.06 1007.41 1007.38 1008.24 1009.53 1010.67 1010.77 1011.39 1011.55 1012.28 1012.88 1012.91 1012.67 1013.10 1013.59 1013.79 1014.37 1014.68 1014.93 1015.01 1015.57 1016.19 1016.10 1015.49 1014.41 1013.70 1013.49 1013.61 1013.75 1013.75 1013.51 1013.30 1013.16 1013.03 1013.00
1004.00 1004.26 1004.75 1004.97 1005.26 1005.82 1006.17 1006.80 1007.31 1007.74 1008.26 1008.63 1009.23 1009.98 1010.75 1011.76 1011.66 1012.19 1012.28 1012.26 1013.10 1013.03 1013.52 1013.92 1014.19 1014.25 1014.47 1015.06 1015.52 1015.97 1015.91 1015.37 1014.81 1014.37 1014.05 1013.92 1013.56 1013.55 1013.56 1013.25 1013.10 1013.01 1012.77 1012.52
1005.17 1005.61 1005.76 1006.07 1006.36 1006.77 1007.25 1007.54 1008.09 1008.61 1008.95 1009.22 1009.85 1010.66 1011.12 1011.22 1011.61 1012.10 1012.81 1013.09 1013.01 1013.25 1013.63 1013.84 1013.97 1014.11 1014.57 1014.94 1015.48 1015.56 1015.05 1014.59 1014.32 1014.25 1013.98 1013.70 1013.33 1013.29 1013.09 1013.14 1013.20 1012.96 1012.58 1012.58
1005.61 1006.06 1006.49 1006.92 1007.27 1007.73 1008.29 1008.90 1009.22 1009.36 1009.44 1009.83 1010.02 1010.37 1010.89 1011.56 1011.98 1011.94 1012.03 1012.40 1012.79 1013.08 1013.26 1013.61 1014.01 1014.37 1014.61 1014.98 1014.99 1014.70 1014.41 1014.17 1014.10 1013.78 1013.36 1013.14 1013.23 1012.91 1012.73 1012.88 1012.93 1012.54 1012.74 1012.70
1005.51 1006.05 1006.73 1007.47 1008.07 1008.62 1009.02 1009.50 1009.85 1010.07 1010.26 1010.49 1010.65 1010.83 1010.99 1011.14 1011.32 1011.67 1011.90 1012.25 1012.55 1012.97 1013.47 1013.79 1014.06 1014.12 1014.23 1014.26 1014.22 1014.11 1014.02 1013.87 1013.73 1013.44 1013.17 1012.94 1012.98 1012.74 1012.64 1012.66 1012.50 1012.42 1012.76 1013.00
1005.92 1006.70 1007.17 1007.59 1008.21 1008.71 1009.29 1009.73 1010.24 1010.56 1010.73 1010.95 1011.07 1011.11 1011.32 1011.42 1011.66 1011.92 1012.15 1012.39 1012.69 1013.09 1013.50 1013.56 1013.62 1013.64 1013.66 1013.63 1013.59 1013.53 1013.42 1013.27 1013.30 1013.15 1012.85 1012.81 1012.58 1012.26 1012.26 1012.24 1011.99 1012.48 1012.82 1013.12
1006.69 1007.02 1007.64 1008.26 1008.61 1008.90 1009.28 1009.77 1010.13 1010.48 1010.59 1010.81 1011.10 1011.16 1011.33 1011.55 1011.67 1011.79 1011.95 1012.34 1012.57 1012.77 1012.86 1012.89 1012.93 1012.94 1013.00 1012.98 1012.95 1012.85 1012.74 1012.64 1012.73 1012.47 1012.44 1012.01 1012.08 1012.26 1011.88 1012.10 1011.91 1012.19 1012.81 1012.93
Wind_Speed
7 9 3 5 6 8 6 4 2 6 11 9 10 11 5 13 9 12 6 6 3 5 5 4 10 8 9 11 10 8 7 7 7 7 6 7 5 5 5 6 6 6 7 7
3 5 5 4 10 7 6 2 7 6 6 9 8 6 7 13 13 16 17 16 15 17 13 10 12 12 13 13 10 9 4 6 7 6 7 6 6 6 6 6 6 6 8 10
6 3 3 5 8 6 4 0 8 9 11 6 6 7 10 10 17 23 21 16 17 11 9 12 10 8 6 4 9 9 8 7 8 6 7 7 7 7 6 6 6 7 9 9
5 2 3 9 5 5 7 7 6 7 8 10 11 7 7 6 11 14 16 15 16 10 11 8 10 14 16 12 4 8 9 7 6 7 6 6 7 6 5 4 5 6 9 8
3 4 6 5 3 5 7 6 11 9 7 3 6 8 2 6 5 8 7 7 7 12 10 12 12 13 11 11 10 12 7 6 6 6 7 6 6 4 5 6 5 9 6 7
1 5 9 8 4 6 10 2 17 1 12 9 4 5 4 5 6 9 17 13 12 11 10 14 10 12 13 10 8 8 7 6 5 7 7 6 3 7 6 6 9 7 6 5
3 6 7 2 10 5 6 1 8 2 3 11 9 4 6 10 11 10 14 17 13 12 11 10 13 14 13 8 8 6 8 7 7 7 6 7 6 6 6 7 9 6 6 5
5 3 4 11 12 5 9 2 9 17 17 20 11 7 11 10 9 13 14 14 14 14 11 8 9 11 11 9 6 7 7 7 7 7 5 7 9 6 7 7 7 6 6 5
6 5 9 6 3 5 13 7 9 16 20 21 18 4 9 6 10 10 12 11 11 14 12 6 6 9 12 7 9 8 7 6 5 6 6 7 7 6 6 6 5 4 4 3
4 7 8 4 0 4 6 19 18 21 22 21 11 2 8 5 7 8 10 12 11 14 11 7 5 5 8 8 8 8 8 7 5 6 6 6 5 5 5 5 4 4 4 3
6 7 8 6 7 9 12 8 12 16 23 24 18 11 7 6 7 9 9 9 9 11 8 6 6 6 5 6 7 7 7 6 5 4 5 5 4 4 5 4 6 6 4 4
6 9 6 10 6 5 9 12 12 18 16 16 18 15 11 8 5 8 9 9 9 8 8 5 6 6 6 4 6 7 6 4 5 4 4 4 5 3 7 6 9 8 10 6
7 8 11 14 10 10 9 6 6 7 13 15 14 13 13 9 8 10 10 9 11 9 8 7 5 6 5 5 7 7 6 5 4 5 4 5 4 5 5 3 4 7 9 10
10 6 9 5 8 7 7 19 13 16 16 17 18 15 15 12 12 12 11 11 12 10 8 7 7 5 3 4 6 6 5 7 5 5 5 4 4 4 4 5 5 5 8 10
11 11 10 9 18 15 11 7 11 9 3 5 11 16 14 14 13 13 13 13 13 13 10 9 8 6 5 6 7 6 5 3 4 2 1 2 2 1 3 3 5 4 3 3
9 12 13 14 7 3 13 11 13 11 15 20 14 8 12 14 13 11 12 15 15 10 8 8 7 6 5 6 5 3 3 8 4 4 4 3 2 2 2 3 2 3 4 5
6 8 9 13 6 4 6 11 13 13 15 18 22 16 20 10 7 9 9 10 12 11 8 8 7 4 4 2 4 3 1 2 4 0 2 2 3 3 4 3 4 4 5 6
7 4 7 6 11 5 4 10 13 16 14 17 18 24 17 10 11 10 8 11 10 7 7 7 7 7 7 6 6 4 3 2 4 3 4 5 4 4 5 4 5 5 6 5
1 5 3 5 16 12 7 5 8 8 4 7 13 14 11 6 9 10 11 12 10 10 5 7 13 10 7 9 9 5 5 4 4 5 6 7 5 5 5 5 6 6 6 4
8 11 14 13 10 8 6 9 9 12 5 12 16 15 12 10 11 10 10 10 8 6 7 7 7 6 6 4 6 4 4 4 6 9 6 5 4 5 5 7 6 5 4 5
8 12 15 14 11 9 8 9 10 10 9 12 15 13 11 8 8 10 8 6 1 7 7 8 6 4 2 3 2 2 4 6 7 6 5 1 4 3 5 5 4 4 4 3
9 12 12 13 12 10 8 8 10 10 11 11 10 10 10 7 8 6 2 6 3 8 5 4 4 4 2 4 2 5 6 6 3 4 3 3 1 3 4 4 3 3 4 2
8 13 11 12 11 9 7 7 7 8 9 9 9 8 7 6 5 7 5 3 5 5 4 3 4 6 9 4 4 5 5 4 4 4 4 4 2 0 3 1 2 4 4 2
9 10 11 10 11 12 11 5 6 6 7 7 7 7 9 6 2 1 4 8 7 7 4 4 5 10 13 5 5 4 4 4 4 5 5 5 1 3 3 2 3 2 4 3
11 9 9 11 11 8 9 7 7 6 7 6 6 6 7 3 5 3 2 3 7 6 4 7 11 9 5 5 4 4 5 5 4 4 4 4 2 3 2 4 3 3 3 3
8 6 5 8 9 7 6 6 6 4 5 4 2 3 3 3 3 3 4 5 5 6 5 5 6 6 5 5 6 6 5 5 2 4 4 4 4 3 2 4 3 5 3 2
6 7 5 5 3 5 5 6 6 6 5 5 5 5 5 4 5 5 6 5 5 6 5 5 5 6 6 6 6 6 6 5 5 5 3 3 3 4 5 3 4 5 4 3
Wind_Direction
208 214 242 266 229 265 140 176 123 210 181 205 166 206 174 181 134 122 108 60 312 140 117 195 168 156 148 146 154 155 153 134 136 118 124 101 95 76 63 55 56 51 49 38
206 194 212 269 282 307 287 272 209 203 209 191 145 127 133 166 159 156 173 178 204 200 153 167 165 149 159 161 150 124 143 130 127 112 97 100 87 85 80 73 63 60 55 58
281 288 309 338 234 239 254 55 164 172 211 172 175 119 159 207 199 182 194 184 203 199 162 167 156 137 140 93 114 131 134 117 111 115 108 107 110 99 73 58 71 61 78 70
245 27 216 234 286 175 185 241 241 325 178 174 113 125 148 169 153 201 201 191 194 187 171 141 115 116 118 136 54 66 80 113 134 118 110 106 92 88 91 91 60 66 90 84
161 195 263 282 255 202 106 310 336 198 82 107 127 142 143 114 166 153 146 148 155 162 150 122 133 114 119 108 135 125 173 112 103 98 93 94 95 120 79 66 47 81 96 92
62 222 208 236 297 24 89 288 351 83 146 160 127 101 251 31 76 119 120 125 127 126 115 126 119 123 121 129 131 126 118 138 121 103 104 106 130 66 58 65 87 104 105 95
260 243 286 27 313 284 103 325 310 61 210 176 141 137 143 66 57 86 105 116 115 108 111 112 147 134 124 111 126 144 125 113 105 111 117 99 81 85 89 87 87 86 81 71
335 307 235 358 325 236 138 136 93 60 24 350 330 83 89 88 79 94 97 99 105 111 110 105 102 112 110 126 145 123 124 108 115 116 104 100 97 89 86 89 89 79 76 64
169 228 258 303 214 317 118 192 142 97 39 342 298 41 81 104 94 101 107 103 108 108 105 95 104 133 130 142 131 121 107 117 119 118 109 122 109 102 89 85 91 97 102 113
42 238 251 250 267 327 50 121 114 117 141 199 247 103 99 115 127 125 118 109 109 111 116 108 97 107 123 131 127 122 126 139 133 121 112 118 112 124 120 125 126 137 137 124
251 291 280 240 213 167 190 186 167 170 181 179 168 164 146 171 168 131 123 113 111 111 115 131 126 118 117 131 132 130 129 146 150 137 136 134 131 149 145 179 163 156 178 167
210 224 203 270 268 157 209 200 165 182 185 159 155 154 157 159 140 127 123 127 114 106 113 133 129 124 110 128 126 125 122 136 145 132 129 135 138 119 22 166 182 191 179 175
238 220 198 239 303 265 234 206 196 171 161 160 165 157 157 145 152 138 128 123 123 122 126 124 109 90 86 94 118 130 125 121 126 126 130 145 154 156 164 296 279 237 218 221
223 307 324 239 255 201 225 247 193 176 163 169 159 159 155 140 132 133 135 135 121 124 125 121 111 109 117 115 104 107 114 133 158 159 147 163 176 175 186 185 215 254 239 227
260 243 253 314 306 312 310 182 125 91 43 118 148 143 135 130 133 139 141 137 137 136 138 132 132 155 139 122 127 153 143 134 154 136 291 142 128 48 162 183 228 265 308 258
240 229 247 274 293 107 91 99 92 97 89 53 39 357 137 135 137 135 139 139 134 141 151 140 142 170 151 136 145 151 157 167 160 158 175 166 193 188 196 213 264 252 246 246
178 207 226 257 132 157 120 123 113 113 102 94 78 21 31 29 78 128 141 119 128 143 147 135 151 123 104 173 192 202 236 250 166 151 171 216 173 226 236 237 256 255 248 240
193 185 211 243 152 156 135 115 113 118 122 129 142 131 185 205 172 144 126 114 115 111 135 138 128 105 75 71 72 82 357 56 17 309 248 247 233 219 234 238 250 251 262 275
92 212 122 211 170 137 113 229 122 73 63 138 124 130 141 157 144 126 127 125 134 133 168 116 108 118 118 120 117 141 109 127 250 294 262 244 239 231 238 239 247 249 251 278
62 95 98 96 103 113 125 234 84 100 170 123 116 119 129 145 138 135 132 141 160 156 148 144 113 100 95 84 66 65 93 257 277 270 250 250 204 240 228 245 248 258 290 275
97 96 100 105 105 107 108 92 113 125 119 114 116 127 147 129 134 131 121 135 170 125 114 111 119 137 156 96 82 264 259 267 268 299 332 278 219 212 264 265 293 292 308 307
102 97 97 97 92 78 68 93 107 106 110 112 111 115 117 121 101 83 74 138 149 124 127 130 148 193 232 230 267 233 241 254 298 334 336 319 21 313 305 302 323 296 279 359
116 114 115 113 113 111 92 71 75 100 109 115 123 129 136 138 139 123 119 184 141 157 150 163 193 225 249 257 253 250 263 299 325 323 296 285 297 31 272 78 244 274 298 12
113 111 111 110 109 106 103 92 99 99 100 108 114 125 131 127 93 132 126 162 166 175 188 194 211 230 232 222 237 259 285 303 304 304 304 300 342 280 278 305 298 301 343 38
108 103 101 105 108 112 114 114 100 97 103 108 124 134 132 128 132 203 159 185 197 183 200 223 226 226 201 207 230 255 264 270 291 293 275 287 26 322 341 325 327 22 54 49
104 112 119 124 132 131 133 130 133 142 124 119 115 147 162 184 202 195 200 196 190 185 196 217 215 220 220 227 235 247 255 268 279 262 264 301 260 178 220 246 82 105 115 107
106 109 107 106 118 142 145 145 144 162 163 160 167 197 197 207 218 197 183 182 197 202 208 214 216 223 222 229 233 240 245 252 251 238 191 173 204 244 233 224 135 134 148 139